Overview Statistics Trail Chart Weather Telemetry Raw packets
 

This is the latest recevied weather packets stored in our database for station/object KV4OP. If no packets are shown the sender has not sent any weather packets the latest 10 day(s).

<< 1 2 3 4 5 6 >>
Time Temp. Humidity Pressure Rain* Wind** Luminosity Snow
1788645302 28.89° C 81% 1012.8 hPa 0 mm - - -
1788645002 28.89° C 80% 1012.6 hPa 0 mm - - -
1788644702 28.89° C 80% 1012.7 hPa 0 mm - - -
1788644411 28.89° C 80% 1012.9 hPa 0 mm - - -
1788644102 28.89° C 80% 1013.1 hPa 0 mm - - -
1788643802 28.89° C 80% 1013.3 hPa 0 mm - - -
1788643502 28.89° C 80% 1013.1 hPa 0 mm - - -
1788643211 29.44° C 79% 1013 hPa 0 mm - - -
1788642902 30° C 78% 1013.1 hPa 0 mm - - -
1788642602 30° C 78% 1013.1 hPa 0 mm - - -
1788642302 30° C 80% 1013.1 hPa 0 mm - - -
1788642011 32.22° C 77% 1012.8 hPa 0 mm - - -
1788641702 33.89° C 74% 1012.9 hPa 0 mm - - -
1788641403 32.78° C 77% 1013 hPa 0 mm - - -
1788641103 32.78° C 75% 1013 hPa 0 mm - - -
1788640811 33.33° C 74% 1012.8 hPa 0 mm - - -
1788640502 33.89° C 74% 1012.6 hPa 0 mm - - -
1788640202 33.33° C 74% 1012.9 hPa 0 mm - - -
1788639903 33.89° C 74% 1012.9 hPa 0 mm - - -
1788639611 33.89° C 72% 1012.7 hPa 0 mm - - -
1788639302 34.44° C 72% 1012.7 hPa 0 mm - - -
1788639002 34.44° C 73% 1012.6 hPa 0 mm - - -
1788638703 33.33° C 74% 1012.7 hPa 0 mm - - -
1788638411 32.78° C 75% 1012.7 hPa 0 mm - - -
1788638103 33.33° C 74% 1012.6 hPa 0 mm - - -

* Rain latest hour (hover to see other rain measurements)
** Current wind speed in m/s (hover to see current wind gust speed)